Terminal Aerodrome Forecast
Issued by NWS Quad Cities IA IL

Home | Current Version | Previous Version | Text Only | Print | Product List | Glossary On
Versions: 1 2 3 4 5 6 7 8 9 10 11 12 13 14 15 16 17 18 19 20 21
139
FTUS43 KDVN 291730
TAFDBQ
TAF
KDBQ 291730Z 2918/3018 04018G26KT P6SM OVC150
     FM291900 05016G25KT 5SM -SHRA BKN050 OVC100
      TEMPO 2919/2923 3SM SHRA BR BKN025
     FM292300 05018G26KT 6SM BR OVC012
     FM300200 05020G30KT 5SM BR OVC007 PROB30 3008/3012 4SM -SHRA=

USA.gov is the U.S. government's official web portal to all federal, state and local government web resources and services.